Regional Weather Roundup
Issued by NWS

Home | Current Version | Previous Version | Text Only | Print | Product List | Glossary On
Versions: 1 2 3 4 5 6 7 8 9 10 11 12 13 14 15 16 17 18 19 20 21 22 23 24 25 26 27
000
ASUS45 KPSR 181610
RWRAZ

ARIZONA HOURLY REGIONAL WEATHER ROUNDUP
NATIONAL WEATHER SERVICE PHOENIX AZ
900 AM MST FRI AUG 18 2017

NOTE: FAIR INDICATES FEW OR NO CLOUDS BELOW 12,000 FEET WITH NO
SIGNIFICANT WEATHER AND/OR OBSTRUCTIONS TO VISIBILITY.

AZZ001>003-036-181700-
NORTHWEST ARIZONA

CITY           SKY/WX    TMP DP  RH WIND       PRES   REMARKS
BULLHEAD CITY  SUNNY     88  39  18 CALM      29.93S
KINGMAN        SUNNY     86  38  18 CALM      30.12S
$$

AZZ004>008-015-016-018-181700-
NORTH CENTRAL ARIZONA

CITY           SKY/WX    TMP DP  RH WIND       PRES   REMARKS
GRAND CANYON   SUNNY     74  40  29 SE3       30.35S
WILLIAMS       SUNNY     72  37  28 NW3       30.36S
PRESCOTT       SUNNY     78  35  21 CALM      30.25R
FLAGSTAFF      SUNNY     70  43  37 VRB3      30.39R
PAYSON           N/A     79  28  15 CALM      30.27S
PAGE           SUNNY     81  39  22 CALM      30.16R
$$

AZZ009>014-017-181700-
NORTHEAST ARIZONA

CITY           SKY/WX    TMP DP  RH WIND       PRES   REMARKS
WINSLOW        SUNNY     76  33  21 E7        30.25R
SAINT JOHNS    SUNNY     76  39  26 CALM      30.29S
WINDOW ROCK    SUNNY     73  32  22 CALM      30.37R
SHOW LOW       SUNNY     75  28  17 CALM      30.36S
$$

AZZ540-542>544-546-548-181700-
GREATER PHOENIX AREA

CITY           SKY/WX    TMP DP  RH WIND       PRES   REMARKS
PHOENIX        MOSUNNY   89  39  17 E6        29.96R
BUCKEYE        SUNNY     91  34  13 E9        29.96S
GLENDALE       MOSUNNY   88  41  19 NE3       29.98S
LUKE AFB       SUNNY     88  43  20 CALM      29.96S
DEER VALLEY    SUNNY     88  33  14 CALM      29.98R
SCOTTSDALE     SUNNY     88  35  15 CALM      30.00R
MESA-GATEWAY   MOSUNNY   86  46  25 SE8       30.00R
CHANDLER       SUNNY     84  46  26 CALM      29.98R
$$

AZZ539-553-181700-
SOUTHWEST MARICOPA COUNTY AND PINAL COUNTY

CITY           SKY/WX    TMP DP  RH WIND       PRES   REMARKS
CASA GRANDE    SUNNY     86  47  25 S3        30.00S
GILA BEND      SUNNY     91  48  22 N3        29.93S
$$

AZZ503-504-507>509-181700-
SOUTHEAST ARIZONA

CITY           SKY/WX    TMP DP  RH WIND       PRES   REMARKS
TUCSON         NOT AVBL
DAVIS-MONTHAN  SUNNY     85  41  20 SE5       30.08R
RYAN FIELD     SUNNY     82  45  26 E3        30.08R
NOGALES        SUNNY     76  50  40 CALM      30.17R
SIERRA VISTA   SUNNY     81  34  18 CALM      30.22S
DOUGLAS        SUNNY     74  50  42 W3        30.18R
SAFFORD        SUNNY     79  39  23 CALM      30.10S
$$

AZZ532-181700-
SOUTHWEST ARIZONA

CITY           SKY/WX    TMP DP  RH WIND       PRES   REMARKS
YUMA           SUNNY     90  52  27 S9        29.89R
$$

CAZ041-043-047-048-061-525>527-560>570-181700-
SOUTHERN CALIFORNIA

CITY           SKY/WX    TMP DP  RH WIND       PRES   REMARKS
DOWNTOWN L.A.  MOSUNNY   71  63  75 CALM      30.01R
L.A. AIRPORT   PTSUNNY   69  63  81 W5        30.01S
SAN DIEGO      PTSUNNY   71  60  68 NW6       30.03R
BURBANK        SUNNY     68  59  73 CALM      30.01R
ONTARIO        SUNNY     70  59  68 SW5       30.01S
RIVERSIDE      SUNNY     69  62  78 CALM      30.01S
PALM SPRINGS   SUNNY     89  54  30 VRB3      29.91R
EL CENTRO NAS  SUNNY     90  52  27 N5        29.90R
IMPERIAL       SUNNY     89  56  32 N3        29.87R
BLYTHE         SUNNY     90  48  23 VRB3      29.90R
NEEDLES        SUNNY     91  37  15 CALM      29.94R
$$

NVZ020-UTZ003-181700-
SOUTHERN NEVADA-UTAH

CITY           SKY/WX    TMP DP  RH WIND       PRES   REMARKS
LAS VEGAS      MOSUNNY   90  41  18 CALM      30.01S
SALT LAKE CITY SUNNY     78  43  28 SE3       30.16S
$$

NMZ009-TXZ055-181700-
NEW MEXICO-WEST TEXAS

CITY           SKY/WX    TMP DP  RH WIND       PRES   REMARKS
ALBUQUERQUE    MOSUNNY   77  40  26 CALM      30.26R
EL PASO        MOSUNNY   80  62  54 S6        30.14S
$$


........................KEY........................
SKY/WX - SKY CONDITION/WEATHER
TMP    - TEMPERATURE IN FAHRENHEIT
DP     - DEW POINT IN FAHRENHEIT
RH     - RELATIVE HUMIDITY IN PERCENT
WIND   - DIRECTION AND SPEED IN MILES PER HOUR (MPH)
VRB    - VARIABLE WIND DIRECTION
PRES   - MEAN SEA LEVEL PRESSURE IN INCHES OF MERCURY
         F - FALLING PRESSURE   R - RISING PRESSURE
         S - STEADY PRESSURE
VSB    - VISIBILITY IN MILES
HX     - HEAT INDEX IN FAHRENHEIT
WCI    - WIND CHILL INDEX IN FAHRENHEIT
TC     - TEMPERATURE IN CELSIUS WHICH IS ALSO KNOWN AS
         TEMPERATURE IN CENTIGRADE
AFB    - AIR FORCE BASE
         LUKE AFB IS LUKE AIR FORCE BASE
         DAVIS-MONTHAN IS DAVIS-MONTHAN AIR FORCE BASE
NAS    - NAVAL AIR STATION
         EL CENTRO NAS IS EL CENTRO NAVAL AIR STATION
N/A    - NOT AVAILABLE





USA.gov is the U.S. government's official web portal to all federal, state and local government web resources and services.